GW3494 Weather Reports


Display with metric or nautical units.
time (UTC)temp
F
wind
direction
speed
MPH
gust
MPH
rain 1hr
in
rain 24hr
in
rain mn
in
humidity
%
barometer
mb
20260510033450 57 149 3.0 5.0 0.00 0.24 0.24 83 1010.8
20260510032948 57 162 1.0 5.0 0.00 0.24 0.24 83 1010.8
20260510032445 57 251 0.0 4.0 0.00 0.24 0.24 82 1010.7
20260510031944 57 197 0.0 6.0 0.00 0.24 0.24 82 1010.6
20260510031440 57 177 2.0 5.0 0.00 0.24 0.24 81 1010.6
20260510030936 58 237 2.0 5.0 0.00 0.24 0.24 81 1010.8
20260510030432 58 225 0.0 6.0 0.00 0.24 0.24 80 1010.7
20260510025930 57 120 1.0 5.0 0.00 0.24 0.24 82 1010.5
20260510025427 57 211 3.0 5.0 0.00 0.24 0.24 81 1010.3
20260510024924 57 166 2.0 7.0 0.00 0.24 0.24 81 1010.3
20260510024420 58 180 0.0 5.0 0.00 0.24 0.24 80 1010.6
20260510023916 58 197 5.0 7.0 0.00 0.24 0.24 79 1010.2
20260510023413 58 162 1.0 6.0 0.00 0.24 0.24 80 1010.2
20260510022910 57 163 2.0 5.0 0.00 0.24 0.24 80 1010.2
20260510022409 57 189 3.0 6.0 0.00 0.24 0.24 81 1010.1
20260510021908 57 170 3.0 5.0 0.00 0.24 0.24 80 1010.1
20260510021407 57 219 3.0 6.0 0.00 0.24 0.24 80 1010.3
20260510020903 57 246 1.0 3.0 0.00 0.24 0.24 82 1010.0
20260510020358 58 138 3.0 7.0 0.00 0.24 0.24 80 1009.8
20260510015854 57 192 0.0 5.0 0.00 0.24 0.24 80 1009.9
20260510015349 57 182 3.0 4.0 0.00 0.24 0.24 80 1010.0
20260510014845 58 139 2.0 5.0 0.00 0.24 0.24 79 1010.0
20260510014342 58 200 0.0 4.0 0.00 0.24 0.24 80 1010.1
20260510013838 58 180 2.0 6.0 0.00 0.24 0.24 78 1009.9
20260510013334 58 168 1.0 3.0 0.00 0.24 0.24 80 1009.7
20260510012829 58 203 1.0 4.0 0.00 0.24 0.24 78 1009.6
20260510012329 58 213 2.0 3.0 0.00 0.24 0.24 78 1009.4
20260510011824 59 192 3.0 4.0 0.00 0.24 0.24 77 1009.5
20260510011320 58 176 2.0 4.0 0.00 0.24 0.24 79 1009.5
20260510010816 58 198 1.0 5.0 0.00 0.24 0.24 79 1009.5
20260510010314 59 193 3.0 5.0 0.00 0.24 0.24 77 1009.4
20260510005811 59 189 4.0 6.0 0.00 0.24 0.24 76 1009.2
20260510005307 59 195 3.0 5.0 0.00 0.24 0.24 76 1009.2
20260510004805 59 196 0.0 3.0 0.00 0.24 0.24 77 1009.2
20260510004302 59 191 3.0 3.0 0.00 0.24 0.24 76 1009.3
20260510003759 59 190 2.0 4.0 0.00 0.24 0.24 75 1009.2
20260510003256 60 187 2.0 4.0 0.00 0.24 0.24 75 1009.3
20260510002754 60 254 1.0 5.0 0.00 0.24 0.24 75 1009.1
20260510002253 60 285 0.0 3.0 0.00 0.24 0.24 74 1009.1
20260510001749 60 174 0.0 3.0 0.00 0.24 0.24 73 1009.0
20260510001247 61 180 0.0 3.0 0.00 0.24 0.24 72 1009.0
20260510000743 61 197 2.0 4.0 0.00 0.24 0.24 71 1008.9
20260510000241 61 198 3.0 4.0 0.00 0.24 0.24 72 1008.6
20260509235737 61 270 0.0 3.0 0.00 0.24 0.24 72 1008.7
20260509235233 61 237 3.0 4.0 0.00 0.24 0.24 72 1008.7
20260509234729 62 196 2.0 8.0 0.00 0.24 0.24 69 1008.7
20260509234227 62 191 2.0 6.0 0.00 0.24 0.24 68 1008.5
20260509233725 61 259 2.0 5.0 0.00 0.24 0.24 71 1008.6
20260509233222 62 57 2.0 3.0 0.00 0.24 0.24 70 1008.8
20260509232718 62 206 1.0 2.0 0.00 0.24 0.24 71 1008.7
20260509232215 62 261 2.0 4.0 0.00 0.24 0.24 70 1008.6
20260509231712 63 186 0.0 4.0 0.00 0.24 0.24 68 1008.6
20260509231209 63 254 2.0 4.0 0.00 0.24 0.24 67 1008.6
20260509230706 63 144 3.0 5.0 0.00 0.24 0.24 67 1008.7
20260509230157 64 200 3.0 3.0 0.00 0.24 0.24 67 1008.5
20260509225653 64 166 1.0 4.0 0.00 0.24 0.24 67 1008.7
20260509225149 64 204 4.0 5.0 0.00 0.24 0.24 68 1008.8
20260509224644 65 237 3.0 5.0 0.00 0.24 0.24 67 1008.9
20260509224141 64 183 0.0 4.0 0.00 0.24 0.24 67 1008.8
20260509223638 65 261 0.0 4.0 0.00 0.24 0.24 67 1009.0
20260509223130 65 220 2.0 7.0 0.00 0.24 0.24 67 1008.8
20260509222627 65 252 0.0 4.0 0.00 0.24 0.24 68 1008.8
20260509222122 65 276 2.0 8.0 0.00 0.24 0.24 65 1008.9
20260509221619 66 214 4.0 6.0 0.00 0.24 0.24 65 1009.0
20260509221114 66 261 4.0 5.0 0.00 0.24 0.24 63 1009.1
20260509220610 66 211 3.0 7.0 0.00 0.24 0.24 64 1009.0
20260509220107 66 191 5.0 8.0 0.00 0.24 0.24 65 1008.9
20260509215602 66 202 0.0 7.0 0.00 0.24 0.24 62 1008.8
20260509215100 65 239 5.0 9.0 0.00 0.24 0.24 65 1008.9
20260509214557 66 244 3.0 7.0 0.00 0.24 0.24 64 1009.0
20260509214053 67 205 3.0 3.0 0.00 0.24 0.24 66 1008.9
20260509213549 66 150 2.0 7.0 0.00 0.24 0.24 66 1009.1
20260509213046 65 125 5.0 6.0 0.00 0.24 0.24 67 1009.1
20260509212544 64 180 0.0 5.0 0.00 0.24 0.24 68 1009.2
20260509212041 66 220 3.0 4.0 0.00 0.24 0.24 70 1009.0
20260509211536 66 222 6.0 11.0 0.00 0.24 0.24 65 1009.0
20260509211033 66 239 6.0 7.0 0.00 0.24 0.24 64 1009.0
20260509210530 66 186 4.0 4.0 0.00 0.24 0.24 68 1009.1
20260509210026 66 252 0.0 6.0 0.00 0.24 0.24 65 1009.2
20260509205520 68 220 3.0 4.0 0.00 0.24 0.24 63 1008.8
20260509205016 65 141 3.0 13.0 0.00 0.24 0.24 67 1009.2
20260509204513 64 216 4.0 6.0 0.00 0.24 0.24 69 1009.0
20260509204009 65 185 2.0 8.0 0.00 0.24 0.24 67 1008.8
20260509203505 68 263 1.0 5.0 0.00 0.24 0.24 61 1009.1
20260509203004 67 197 4.0 12.0 0.00 0.24 0.24 64 1009.1
20260509202458 68 232 5.0 8.0 0.00 0.24 0.24 62 1009.3
20260509201953 67 235 5.0 13.0 0.00 0.24 0.24 65 1009.3
20260509201454 69 215 4.0 5.0 0.00 0.24 0.24 65 1009.2
20260509200951 68 221 2.0 6.0 0.00 0.24 0.24 66 1009.3
20260509200446 69 251 2.0 3.0 0.00 0.24 0.24 63 1009.4
20260509195943 68 202 3.0 4.0 0.00 0.24 0.24 67 1009.2
20260509195438 66 231 4.0 13.0 0.00 0.24 0.24 64 1009.4
20260509194938 66 155 3.0 9.0 0.00 0.24 0.24 65 1009.4
20260509194433 66 197 5.0 8.0 0.00 0.24 0.24 68 1009.4
20260509193931 65 195 4.0 6.0 0.00 0.24 0.24 65 1009.7
20260509193430 66 192 2.0 5.0 0.00 0.24 0.24 67 1009.5
20260509192927 66 194 2.0 6.0 0.00 0.24 0.24 70 1009.6
20260509192423 66 120 5.0 9.0 0.00 0.24 0.24 66 1009.7
20260509191918 66 263 1.0 4.0 0.00 0.24 0.24 64 1009.7
20260509191415 65 180 2.0 5.0 0.00 0.24 0.24 69 1009.8
20260509190911 63 241 2.0 5.0 0.00 0.24 0.24 82 1009.7
20260509190408 62 251 0.0 3.0 0.00 0.24 0.24 75 1009.7
20260509185905 62 248 4.0 8.0 0.00 0.24 0.24 70 1009.6
20260509185402 60 241 2.0 6.0 0.00 0.24 0.24 76 1009.7
20260509184858 60 180 1.0 9.0 0.00 0.24 0.24 78 1009.7
20260509184355 62 230 4.0 4.0 0.00 0.24 0.24 77 1009.7
20260509183853 62 180 0.0 5.0 0.00 0.24 0.24 78 1009.7
20260509183347 61 189 2.0 11.0 0.00 0.24 0.24 75 1009.7
20260509182843 60 225 2.0 3.0 0.00 0.24 0.24 82 1009.9
20260509182341 61 245 2.0 2.0 0.00 0.24 0.24 84 1009.8
20260509181838 60 180 1.0 3.0 0.00 0.24 0.24 81 1009.8
20260509181335 60 188 0.0 3.0 0.00 0.24 0.24 85 1009.8
20260509180832 60 180 0.0 3.0 0.00 0.24 0.24 85 1009.7
20260509180328 59 188 0.0 4.0 0.00 0.24 0.24 83 1009.7
20260509175825 59 180 1.0 6.0 0.00 0.24 0.24 86 1009.6
20260509175322 58 188 2.0 5.0 0.00 0.24 0.24 86 1009.4
20260509174818 59 183 2.0 5.0 0.00 0.24 0.24 88 1009.7
20260509174313 58 131 2.0 4.0 0.00 0.24 0.24 88 1009.5
20260509173810 58 180 2.0 5.0 0.00 0.24 0.24 87 1009.5
20260509173305 59 120 2.0 5.0 0.00 0.24 0.24 90 1009.5
20260509172801 58 278 1.0 7.0 0.00 0.24 0.24 90 1009.6
20260509172259 58 142 4.0 6.0 0.00 0.24 0.24 95 1009.8
20260509171754 57 234 3.0 4.0 0.00 0.24 0.24 97 1009.4
20260509171250 56 156 0.0 5.0 0.00 0.24 0.24 99 1009.7
20260509170747 57 200 0.0 4.0 0.00 0.24 0.24 99 1009.7
20260509170243 56 196 3.0 5.0 0.00 0.24 0.24 99 1009.4
20260509165742 54 140 3.0 5.0 0.00 0.24 0.24 99 1009.7
20260509165237 54 185 1.0 4.0 0.00 0.24 0.24 99 1009.5
20260509164733 53 155 3.0 3.0 0.00 0.24 0.24 99 1009.8
20260509164229 53 198 0.0 3.0 0.00 0.24 0.24 99 1009.7
20260509163726 53 180 0.0 3.0 0.00 0.24 0.24 99 1009.9
20260509163223 53 160 1.0 3.0 0.00 0.24 0.24 99 1010.0
20260509162720 53 169 1.0 2.0 0.00 0.24 0.24 99 1010.0
20260509162215 53 191 3.0 4.0 0.00 0.24 0.24 99 1009.6
20260509161711 53 197 3.0 3.0 0.00 0.24 0.24 99 1009.6
20260509161208 52 196 0.0 3.0 0.00 0.24 0.24 99 1009.9
20260509160703 53 186 1.0 4.0 0.00 0.24 0.24 99 1009.9
20260509160159 53 185 2.0 3.0 0.00 0.24 0.24 99 1009.9
20260509155655 53 203 0.0 3.0 0.00 0.24 0.24 99 1009.7
20260509155151 52 196 3.0 4.0 0.00 0.24 0.24 99 1009.8
20260509154647 52 195 2.0 3.0 0.00 0.24 0.24 99 1009.5
20260509154145 52 174 1.0 4.0 0.00 0.24 0.24 99 1009.7
20260509153641 51 198 1.0 4.0 0.00 0.24 0.24 99 1009.9
20260509153138 51 163 2.0 3.0 0.00 0.24 0.24 99 1009.9
20260509152634 51 193 3.0 4.0 0.00 0.24 0.24 99 1009.9
20260509152131 51 160 1.0 4.0 0.00 0.24 0.24 99 1010.2
20260509151627 52 154 3.0 4.0 0.00 0.24 0.24 99 1010.3
20260509151125 52 175 1.0 3.0 0.02 0.24 0.24 99 1010.0
20260509150623 52 185 1.0 3.0 0.02 0.24 0.24 99 1009.9
20260509150121 51 187 2.0 3.0 0.00 0.23 0.23 99 1010.0
20260509145616 51 200 3.0 4.0 0.00 0.23 0.23 99 1010.5
20260509145113 51 189 2.0 3.0 0.00 0.23 0.23 99 1010.5
20260509144610 51 192 2.0 4.0 0.00 0.23 0.23 99 1010.2
20260509144107 51 187 2.0 4.0 0.00 0.23 0.23 99 1010.5
20260509143604 51 198 2.0 4.0 0.00 0.23 0.23 99 1010.3
20260509143102 51 144 0.0 3.0 0.00 0.23 0.23 99 1010.1
20260509142601 51 154 0.0 3.0 0.00 0.23 0.23 99 1010.1
20260509142058 51 180 2.0 3.0 0.00 0.23 0.23 99 1010.2
20260509141554 51 184 2.0 3.0 0.00 0.23 0.23 99 1010.2
20260509141051 51 201 3.0 3.0 0.02 0.23 0.23 99 1010.0
20260509140548 50 180 1.0 2.0 0.02 0.23 0.23 99 1010.5
20260509140046 50 161 2.0 3.0 0.02 0.23 0.23 99 1010.7
20260509135543 50 205 3.0 3.0 0.02 0.22 0.22 99 1010.3
20260509135041 50 188 0.0 3.0 0.02 0.22 0.22 99 1010.3
20260509134537 50 184 2.0 3.0 0.02 0.22 0.22 99 1010.1
20260509134035 50 188 3.0 3.0 0.02 0.22 0.22 99 1010.2
20260509133532 50 188 3.0 3.0 0.02 0.21 0.21 99 1010.5
20260509133029 50 196 3.0 3.0 0.07 0.21 0.21 99 1010.6
20260509132528 50 198 1.0 3.0 0.05 0.20 0.20 99 1010.6
20260509132026 50 187 1.0 3.0 0.05 0.20 0.20 99 1010.6
20260509131521 50 198 2.0 3.0 0.02 0.20 0.20 99 1010.3
20260509131018 50 184 2.0 3.0 0.00 0.19 0.19 99 1010.3
20260509130514 50 199 2.0 3.0 0.00 0.19 0.19 99 1010.3
20260509130011 50 200 3.0 3.0 0.02 0.19 0.19 99 1010.3
20260509125508 50 187 1.0 3.0 0.05 0.19 0.19 99 1010.2
20260509125004 50 176 2.0 3.0 0.05 0.19 0.19 99 1010.2
20260509124501 49 195 0.0 3.0 0.02 0.18 0.18 99 1010.6
20260509123958 49 139 0.0 4.0 0.02 0.18 0.18 99 1010.6
20260509123455 49 184 2.0 2.0 0.02 0.18 0.18 99 1010.5
20260509122950 49 193 3.0 4.0 0.02 0.18 0.18 99 1010.6
20260509122448 49 141 2.0 3.0 0.05 0.18 0.18 99 1010.6
20260509121945 49 191 2.0 5.0 0.05 0.17 0.17 99 1010.8
20260509121442 49 154 3.0 3.0 0.05 0.17 0.17 99 1010.8
20260509120940 49 197 3.0 5.0 0.05 0.17 0.17 99 1010.9
20260509120438 49 154 3.0 5.0 0.05 0.16 0.16 99 1010.9
20260509115935 49 154 1.0 3.0 0.05 0.16 0.16 99 1010.8
20260509115432 49 195 0.0 4.0 0.05 0.15 0.15 99 1010.8
20260509114929 49 201 2.0 3.0 0.02 0.15 0.15 99 1010.6
20260509114428 49 166 1.0 4.0 0.00 0.15 0.15 99 1010.5
20260509113927 49 195 3.0 4.0 0.02 0.15 0.15 99 1010.8
20260509113424 49 187 0.0 4.0 0.00 0.14 0.14 99 1010.8
20260509112921 49 186 3.0 3.0 0.02 0.14 0.14 99 1010.8
20260509112418 49 198 1.0 2.0 0.00 0.14 0.14 98 1010.9
20260509111915 49 203 1.0 2.0 0.02 0.14 0.14 98 1010.7
20260509111412 49 259 0.0 4.0 0.02 0.14 0.14 98 1010.5
20260509110909 49 194 0.0 5.0 0.00 0.13 0.13 98 1010.5
20260509110405 49 194 0.0 3.0 0.02 0.13 0.13 98 1010.5
20260509105904 49 238 3.0 5.0 0.02 0.13 0.13 98 1010.3
20260509105402 48 203 0.0 3.0 0.00 0.13 0.13 98 1010.3
20260509104858 48 212 0.0 5.0 0.02 0.13 0.13 98 1010.3
20260509104355 48 192 1.0 4.0 0.05 0.13 0.13 98 1010.1
20260509103853 49 194 2.0 4.0 0.05 0.13 0.13 98 1010.3
20260509103350 49 180 0.0 3.0 0.05 0.12 0.12 97 1010.2
20260509102849 49 152 2.0 2.0 0.02 0.11 0.11 97 1010.3
20260509102345 49 180 1.0 4.0 0.05 0.11 0.11 96 1010.3
20260509101841 49 237 5.0 7.0 0.05 0.11 0.11 96 1010.3
20260509101337 49 233 2.0 3.0 0.02 0.10 0.10 96 1010.5
20260509100835 49 188 0.0 2.0 0.02 0.10 0.10 95 1010.3
20260509100332 49 209 0.0 3.0 0.00 0.10 0.10 95 1010.6
20260509095829 49 199 2.0 8.0 0.02 0.10 0.10 95 1010.3
20260509095326 49 240 3.0 4.0 0.00 0.09 0.09 96 1010.5
20260509094823 49 262 0.0 3.0 0.02 0.09 0.09 96 1010.2
20260509094320 49 201 4.0 5.0 0.02 0.09 0.09 96 1010.3
20260509093818 49 209 1.0 5.0 0.05 0.09 0.09 97 1010.6
20260509093315 49 212 0.0 3.0 0.05 0.09 0.09 96 1010.5
20260509092813 49 240 0.0 3.0 0.02 0.08 0.08 96 1010.9
20260509092311 49 205 4.0 5.0 0.02 0.08 0.08 96 1010.6
20260509091809 49 308 4.0 7.0 0.05 0.08 0.08 96 1010.7
20260509091305 49 130 0.0 5.0 0.02 0.07 0.07 96 1011.0
20260509090803 49 267 3.0 5.0 0.02 0.07 0.07 96 1011.1
20260509090259 49 157 0.0 2.0 0.05 0.07 0.07 96 1010.9
20260509085757 49 194 2.0 8.0 0.05 0.07 0.07 96 1011.1
20260509085254 49 190 5.0 5.0 0.05 0.06 0.06 95 1011.2
20260509084750 49 166 2.0 4.0 0.02 0.06 0.06 95 1011.0
20260509084247 49 129 0.0 2.0 0.02 0.06 0.06 95 1010.9
20260509083745 50 302 3.0 6.0 0.09 0.05 0.05 94 1010.8
20260509083242 50 216 0.0 4.0 0.14 0.05 0.05 93 1011.0
20260509082738 50 254 2.0 4.0 0.07 0.04 0.04 92 1010.8
20260509082235 50 77 0.0 14.0 0.09 0.03 0.03 90 1010.9
20260509081732 51 3 3.0 10.0 0.12 0.02 0.02 88 1011.1
20260509081230 52 184 2.0 5.0 0.07 0.01 0.01 84 1011.0
20260509080728 53 0 3.0 7.0 0.00 0.00 0.00 77 1011.0
20260509080225 53 186 4.0 6.0 0.00 0.00 0.00 74 1011.0
20260509075723 54 195 4.0 7.0 0.00 0.00 0.00 72 1010.8
20260509075220 54 228 2.0 11.0 0.00 0.00 0.00 70 1010.7
20260509074717 55 277 0.0 6.0 0.00 0.00 0.00 65 1010.7
20260509074215 54 234 1.0 4.0 0.00 0.00 0.00 65 1010.5
20260509073711 54 175 1.0 3.0 0.00 0.00 0.00 66 1010.2
20260509073207 54 161 2.0 3.0 0.00 0.00 0.00 66 1010.2
20260509072704 55 220 2.0 4.0 0.00 0.00 0.00 66 1010.0
20260509072201 55 191 3.0 3.0 0.00 0.00 0.00 64 1009.8
20260509071657 55 180 0.0 4.0 0.00 0.00 0.00 65 1010.0
20260509071155 55 188 0.0 6.0 0.00 0.00 0.00 64 1010.0
20260509070651 54 183 3.0 3.0 0.00 0.00 0.00 64 1009.8
20260509070148 54 209 3.0 4.0 0.00 0.00 0.00 66 1009.6
20260509065644 55 194 4.0 5.0 0.00 0.00 0.00 64 1009.3
20260509065140 54 188 4.0 4.0 0.00 0.00 0.00 67 1009.4
20260509064637 55 166 1.0 5.0 0.00 0.00 0.00 64 1009.6
20260509064135 55 117 2.0 4.0 0.00 0.00 0.00 62 1009.5
20260509063632 55 180 3.0 3.0 0.00 0.00 0.00 63 1009.6
20260509063128 55 184 3.0 5.0 0.00 0.00 0.00 62 1009.7
20260509062626 54 199 2.0 4.0 0.00 0.00 0.00 64 1009.6
20260509062122 54 180 3.0 5.0 0.00 0.00 0.00 66 1009.7
20260509061619 55 165 2.0 4.0 0.00 0.00 0.00 63 1009.9
20260509061117 55 173 2.0 4.0 0.00 0.00 0.00 61 1009.8
20260509060614 57 192 2.0 3.0 0.00 0.00 0.00 57 1009.8
20260509060110 57 175 1.0 3.0 0.00 0.00 0.00 55 1010.0
20260509055605 57 180 0.0 3.0 0.00 0.00 0.00 54 1010.0
20260509055101 57 165 1.0 3.0 0.00 0.00 0.00 56 1009.7
20260509054558 57 180 3.0 3.0 0.00 0.00 0.00 57 1009.5
20260509054056 56 180 2.0 3.0 0.00 0.00 0.00 58 1010.0
20260509053555 56 180 3.0 3.0 0.00 0.00 0.00 59 1010.1
20260509053051 56 165 2.0 3.0 0.00 0.00 0.00 59 1010.2
20260509052549 56 75 1.0 3.0 0.00 0.00 0.00 60 1010.2
20260509052047 56 206 0.0 3.0 0.00 0.00 0.00 62 1010.3
20260509051544 57 197 2.0 3.0 0.00 0.00 0.00 60 1009.9
20260509051041 57 170 2.0 4.0 0.00 0.00 0.00 55 1010.2
20260509050538 56 194 1.0 3.0 0.00 0.00 0.00 59 1010.2
20260509050034 56 165 0.0 3.0 0.00 0.00 0.00 61 1010.5
20260509045532 56 180 2.0 2.0 0.00 0.00 0.00 60 1010.8
20260509045028 56 160 0.0 2.0 0.00 0.00 0.00 61 1010.7
20260509044526 56 157 0.0 2.0 0.00 0.00 0.00 60 1010.6
20260509044023 56 176 2.0 3.0 0.00 0.00 0.00 61 1010.6
20260509043520 56 159 2.0 3.0 0.00 0.00 0.00 60 1010.7
20260509043016 56 203 0.0 2.0 0.00 0.00 0.00 60 1010.9
20260509042512 56 180 2.0 3.0 0.00 0.00 0.00 61 1010.9
20260509042008 57 168 2.0 3.0 0.00 0.00 0.00 59 1010.9
20260509041505 57 114 0.0 2.0 0.00 0.00 0.00 56 1010.9
20260509041003 58 165 0.0 1.0 0.00 0.00 0.00 55 1011.0
20260509040501 59 172 0.0 1.0 0.00 0.00 0.00 53 1010.9
20260509035957 59 206 2.0 3.0 0.00 0.00 0.00 53 1011.1
20260509035454 59 165 1.0 1.0 0.00 0.00 0.00 53 1011.2
20260509034951 59 165 1.0 3.0 0.00 0.00 0.00 53 1011.3
20260509034449 59 131 0.0 2.0 0.00 0.00 0.00 52 1011.2
20260509033945 59 198 1.0 2.0 0.00 0.00 0.00 53 1011.3